Showing default

SGDC, 42692

Orbit data source: Space-Track

SGDC, 42692 is a payload satellite owned by Telebras (BR) in GEO that was launched on Thu, 04 May 2017 UTC via an ARIANE 5ECA launch vehicle from the French Guiana (FRGUI). Payloads include a variety of satellites, spacecraft, and rockets equipped with specific instruments for various scientific and technological missions. These include communications satellites like Starlink; space stations such as the ISS; scientific satellites like the Hubble; Earth observation satellites from companies like Planet Labs, Umbra, and HawkEye 360; GPS; miniature CubeSats for education and research; and military/defense satellites.

Loading next visibility...
SGDC details
Identifier
42692, 2017-023B
Orbit
GEO
Last TLE update1 day ago
Origin
Flag of BRTelebras (BR / BRAZ)
ManufacturerThales Alenia
MissionOperational Defense Communications
Bus & MotorSPACEBUS 4000C4, S400
Mass5,735 kg wet, ~2,500 kg dry
Launch date (UTC)
2017-05-04 (8 years ago)
Launch vehicle
ARIANE 5ECA
Launch site
French Guiana (FRGUI)
Object type
Payload
Rocket body
Debris
Shape & HBRBox + 2 Pan, 37 m
Radar Cross Section34.994 m², Large (>1 m²)

Expand to show TLE details & history

TLE from 1 day ago
0 SGDC
1 42692U 17023B   24346.98233429 -.00000234  00000-0  00000-0 0  9995
2 42692   0.0351  73.1999 0003319 202.9370  83.8401  1.00270555 27874
Epoch: 2024-12-11T23:34Z
Definitive object data (Epoch: 2024-12-11T23:34:33.682Z)
Latitude-0.01408°
Longitude-74.80956°
Altitude35,784.971 km
Speed3.075 km/s
True Right ascension23h 59m 59s
True Declination0° 00' 51"
Sunlit
Object was in daylight at TLE epoch
Visualization TLE readout
Latitude0.03394°
Longitude59.44649°
Altitude35,797.577 km
Speed3.074 km/s
Apparent Right ascension09h 11m 54s
Apparent Declination-6° 04' 25"
Sunlit
Object is in daylight
Visualization observer readout
Local Sidereal Time06:56:02
Azimuth137.691° SSE
Elevation34.379°
Doppler factor1
Orbital elements
Apogee altitude35,802.005 km
Perigee altitude35,774.015 km
Semi-major axis42,166.147 km
Eccentricity0.0003319
Inclination0.0351°
RAAN73.1999°
Arg. of periapsis202.937°
True anomaly83.87792°
Mean anomaly83.8401°
Eccentric anomaly83.85901°
Mean motion0.25067 °/min
BSTARUnknown
Orbital period1436.17 mins
Loading historical data...
42692 neighbors
Authenticating...
Loading maneuver chart data...
Loading historical data...
Loading historical data...
Loading historical data...
Loading historical data...
Loading historical data...
Loading historical data...
Loading historical data...
Other satellites on launch #23 in the year 2017 (2017-05-04 UTC)

SGDC Visibility forecast

Observer location: undefined°, undefined

Span
Click to sort rows by Start time (UTC) header in descending order
Start Az.
Max El. time (UTC)
Max El. Az.
Max El.
End time (UTC)
End Az.
1440 mins2024-12-13 08:26:26.671Z137.704° SSE2024-12-14 08:26:26.671Z137.704° SSE29.448°2024-12-14 08:26:26.671Z137.704° SSE
|